Location: Lone Wolf Observatory
(41.0360°N, 89.2260°W)
Time: 05:06:59
(UTC-05:00)

Amateur Radio Satellites - All Passes

Search period start: 19 April 2014 04:36
Search period end: 20 April 2014 04:36
Location: Lone Wolf Observatory, 41.0360°N, 89.2260°W

Satellite Date Start Highest point End Downlink Frequencies (MHz)
Time Altitude Azimuth
Gurwin Techsat 1B 19 Apr 04:47:34 04:52:32 42° 290° (WNW) 04:57:29 435.225 FM
AO-7 19 Apr 04:52:38 05:00:22 41° 99° (E) 05:08:04 29.400 - 29.500 MHz
KITSAT 1 19 Apr 04:57:39 05:04:54 35° 315° (NW) 05:12:12 435.175 FM
AO-27 19 Apr 05:00:41 05:02:16 11° 302° (WNW) 05:03:51 436.795 MHz FM
RS-15 19 Apr 05:12:27 05:18:36 17° 98° (E) 05:24:37 29.354 - 29.394 USB, Beacon 29.352 USB
JAS-1B 19 Apr 05:25:53 05:31:31 65° 288° (WNW) 05:37:19 435.800 - 435.900 CW/SSB
TMSAT-1 19 Apr 05:36:49 05:40:49 22° 296° (WNW) 05:44:48 436.925 FM
Uosat F 19 Apr 05:38:35 05:43:25 50° 289° (WNW) 05:48:13 435.120 FM
STRAND 1 19 Apr 06:31:52 06:36:55 63° 73° (ENE) 06:41:58 ?
AO-7 19 Apr 06:45:24 06:53:11 47° 297° (WNW) 07:00:59 29.400 - 29.500 MHz
KITSAT 1 19 Apr 06:59:56 07:03:17 13° 343° (NNW) 07:06:38 435.175 FM
Hamsat 19 Apr 07:04:28 07:08:48 63° 101° (E) 07:13:07 145.90 MHz
MaSat-1 19 Apr 07:10:05 07:12:59 52° 64° (ENE) 07:16:23 437.345 MHz
SO-67 19 Apr 07:12:44 07:13:50 11° 91° (E) 07:14:56 435.3500 MHz FM
RS-15 19 Apr 07:17:44 07:29:03 76° 118° (ESE) 07:40:00 29.354 - 29.394 USB, Beacon 29.352 USB
JAS-2 19 Apr 07:28:58 07:33:54 35° 98° (E) 07:39:15 435.800 - 435.900 CW/SSB, 435.910 FM
STRAND 1 19 Apr 08:13:35 08:16:31 15° 269° (W) 08:19:27 ?
Sapphire 19 Apr 08:40:38 08:44:19 18° 43° (NE) 08:47:59 437.095 MHz 1200 baud AX-25 AFSK
Hamsat 19 Apr 08:42:20 08:44:15 13° 297° (WNW) 08:46:10 145.90 MHz
AO-7 19 Apr 08:42:48 08:43:53 10° 319° (NW) 08:44:58 29.400 - 29.500 MHz
SO-67 19 Apr 08:43:53 08:47:12 39° 286° (WNW) 08:50:28 435.3500 MHz FM
KITSAT 1 19 Apr 09:00:11 09:03:12 12° 15° (NNE) 09:06:12 435.175 FM
JAS-2 19 Apr 09:14:18 09:18:57 31° 292° (WNW) 09:23:56 435.800 - 435.900 CW/SSB, 435.910 FM
PCSat 19 Apr 09:24:47 09:29:51 38° 53° (NE) 09:34:52 145.825 MHz
RS-15 19 Apr 09:32:23 09:42:26 37° 323° (NW) 09:52:20 29.354 - 29.394 USB, Beacon 29.352 USB
HO-68 19 Apr 09:38:27 09:45:12 42° 99° (E) 09:51:54 435.675 MHz FM
Oscar 11 19 Apr 10:15:06 10:19:05 33° 97° (E) 10:23:02 145.825 FM, Beacon 2401.500 USB
Sapphire 19 Apr 10:22:58 10:28:24 80° 243° (WSW) 10:33:48 437.095 MHz 1200 baud AX-25 AFSK
KITSAT 1 19 Apr 10:54:37 11:01:44 32° 43° (NE) 11:08:47 435.175 FM
PANSAT 19 Apr 10:55:38 10:57:23 13° 181° (S) 10:59:07 not established
PCSat 19 Apr 11:08:25 11:13:08 31° 251° (WSW) 11:17:49 145.825 MHz
HO-68 19 Apr 11:26:18 11:32:48 39° 296° (WNW) 11:39:18 435.675 MHz FM
Saudisat 1A 19 Apr 11:32:21 11:36:49 89° 122° (ESE) 11:41:19 436.775 MHz
FUNcube-1 19 Apr 11:40:21 11:44:37 86° 283° (WNW) 11:48:58 145.950 - 145.970 MHz USB
Oscar 11 19 Apr 11:51:44 11:55:04 22° 293° (WNW) 11:58:25 145.825 FM, Beacon 2401.500 USB
RS-15 19 Apr 11:51:51 11:59:19 20° 357° (N) 12:06:45 29.354 - 29.394 USB, Beacon 29.352 USB
KITSAT 1 19 Apr 12:49:43 12:57:45 68° 244° (WSW) 13:05:43 435.175 FM
AO-27 19 Apr 12:59:08 13:02:39 19° 62° (ENE) 13:06:10 436.795 MHz FM
ITAMSAT 1 19 Apr 13:09:21 13:13:18 23° 64° (ENE) 13:17:15 435.822 SSB
Oscar 19 19 Apr 13:13:17 13:18:07 44° 70° (ENE) 13:23:00 437.125 CW, 437.150 USB
Saudisat 1A 19 Apr 13:14:40 13:17:04 14° 321° (NW) 13:19:28 436.775 MHz
AO-Echo 19 Apr 13:17:22 13:21:13 21° 65° (ENE) 13:25:00 ?
Oscar 16 19 Apr 13:21:21 13:26:21 56° 72° (ENE) 13:31:24 437.025 USB, Beacon 2401.1428
Uribyol 2 19 Apr 13:56:23 14:01:28 63° 73° (ENE) 14:06:35 436.500 FM
AO-7 19 Apr 14:05:19 14:08:21 13° 44° (NE) 14:11:23 29.400 - 29.500 MHz
RS-15 19 Apr 14:07:13 14:16:37 31° 32° (NNE) 14:26:05 29.354 - 29.394 USB, Beacon 29.352 USB
JAS-1B 19 Apr 14:22:03 14:27:12 20° 61° (ENE) 14:31:50 435.800 - 435.900 CW/SSB
OPAL 19 Apr 14:28:00 14:30:14 13° 92° (E) 14:32:27 ?
Gurwin Techsat 1B 19 Apr 14:29:01 14:33:52 38° 69° (ENE) 14:38:45 435.225 FM
AO-27 19 Apr 14:36:37 14:41:43 57° 259° (W) 14:46:50 436.795 MHz FM
Oscar 10/S400 19 Apr 14:41:04 15:44:39 17° 272° (W) 17:27:11 145.825 - 145.975 CW/USB, Beacon 145.810 USB
ISS 19 Apr 14:47:11 14:49:47 21° 133° (SE) 14:52:25 145.800 FM
ITAMSAT 1 19 Apr 14:47:31 14:52:29 46° 261° (W) 14:57:28 435.822 SSB
KITSAT 1 19 Apr 14:49:15 14:51:37 12° 262° (W) 14:54:00 435.175 FM
Oscar 19 19 Apr 14:53:41 14:57:39 22° 267° (W) 15:01:38 437.125 CW, 437.150 USB
AO-Echo 19 Apr 14:54:33 14:59:39 50° 260° (W) 15:04:38 ?
Oscar 16 19 Apr 15:02:44 15:06:04 17° 268° (W) 15:09:25 437.025 USB, Beacon 2401.1428
Uosat F 19 Apr 15:13:58 15:18:06 27° 66° (ENE) 15:22:15 435.120 FM
TMSAT-1 19 Apr 15:16:44 15:22:00 74° 74° (ENE) 15:27:18 436.925 FM
Uribyol 2 19 Apr 15:38:25 15:41:22 15° 269° (W) 15:44:21 436.500 FM
SO-50 19 Apr 15:49:29 15:53:56 74° 121° (ESE) 15:58:27 436.795 FM
AO-7 19 Apr 15:51:20 15:59:18 55° 65° (ENE) 16:07:17 29.400 - 29.500 MHz
OPAL 19 Apr 16:04:25 16:09:39 78° 288° (WNW) 16:14:52 ?
JAS-1B 19 Apr 16:09:02 16:17:18 81° 256° (WSW) 16:24:10 435.800 - 435.900 CW/SSB
Gurwin Techsat 1B 19 Apr 16:09:28 16:13:54 27° 265° (W) 16:18:23 435.225 FM
RS-15 19 Apr 16:19:35 16:30:36 88° 59° (ENE) 16:41:54 29.354 - 29.394 USB, Beacon 29.352 USB
ISS 19 Apr 16:23:06 16:26:20 45° 330° (NNW) 16:29:35 145.800 FM
UOSAT-12 19 Apr 16:35:23 16:36:58 12° 107° (ESE) 16:38:34 437.025 FM, 437.400 FM
Uosat F 19 Apr 16:52:07 16:56:44 36° 262° (W) 17:01:22 435.120 FM
TMSAT-1 19 Apr 16:59:59 17:02:28 13° 271° (W) 17:04:58 436.925 FM
SO-50 19 Apr 17:32:12 17:35:02 16° 320° (NW) 17:37:53 436.795 FM
JAS-2 19 Apr 17:44:09 17:47:06 15° 61° (ENE) 17:49:56 435.800 - 435.900 CW/SSB, 435.910 FM
AO-7 19 Apr 17:45:05 17:52:21 34° 263° (W) 17:59:41 29.400 - 29.500 MHz
OPAL 19 Apr 17:46:16 17:47:40 11° 305° (NW) 17:49:03 ?
Hamsat 19 Apr 17:57:56 18:01:54 42° 72° (ENE) 18:05:55 145.90 MHz
ISS 19 Apr 18:01:36 18:03:44 16° 349° (N) 18:05:52 145.800 FM
JAS-1B 19 Apr 18:04:50 18:08:27 14° 270° (W) 18:11:51 435.800 - 435.900 CW/SSB
UOSAT-12 19 Apr 18:11:54 18:16:27 76° 304° (WNW) 18:21:07 437.025 FM, 437.400 FM
Saudisat 1A 19 Apr 18:22:02 18:23:24 11° 36° (NE) 18:24:46 436.775 MHz
RS-15 19 Apr 18:33:44 18:41:30 23° 259° (WSW) 18:49:27 29.354 - 29.394 USB, Beacon 29.352 USB
STRAND 1 19 Apr 18:43:28 18:47:18 21° 93° (E) 18:51:06 ?
SO-67 19 Apr 19:17:08 19:20:34 61° 76° (ENE) 19:24:02 435.3500 MHz FM
JAS-2 19 Apr 19:25:47 19:31:41 76° 257° (WSW) 19:37:04 435.800 - 435.900 CW/SSB, 435.910 FM
Hamsat 19 Apr 19:35:34 19:38:06 16° 268° (W) 19:40:40 145.90 MHz
ISS 19 Apr 19:39:28 19:41:31 15° 9° (N) 19:43:33 145.800 FM
UOSAT-12 19 Apr 19:55:14 19:57:25 13° 324° (NW) 19:59:38 437.025 FM, 437.400 FM
Saudisat 1A 19 Apr 19:59:27 20:03:52 68° 56° (NE) 20:08:13 436.775 MHz
HO-68 19 Apr 20:07:22 20:13:29 32° 61° (ENE) 20:19:37 435.675 MHz FM
STRAND 1 19 Apr 20:21:51 20:26:41 45° 290° (WNW) 20:31:31 ?
Oscar 11 19 Apr 21:10:26 21:14:02 27° 69° (ENE) 21:17:40 145.825 FM, Beacon 2401.500 USB
MaSat-1 19 Apr 21:14:02 21:16:30 24° 112° (ESE) 21:18:45 437.345 MHz
ISS 19 Apr 21:15:45 21:18:57 39° 29° (NNE) 21:22:08 145.800 FM
Saudisat 1A 19 Apr 21:41:06 21:42:53 12° 252° (WSW) 21:44:38 436.775 MHz
HO-68 19 Apr 21:53:59 22:00:52 51° 259° (W) 22:07:49 435.675 MHz FM
FUNcube-1 19 Apr 22:36:53 22:41:05 75° 76° (ENE) 22:45:15 145.950 - 145.970 MHz USB
SO-50 19 Apr 22:42:48 22:44:21 11° 35° (NE) 22:45:55 436.795 FM
Oscar 11 19 Apr 22:46:32 22:50:10 26° 265° (W) 22:53:49 145.825 FM, Beacon 2401.500 USB
ISS 19 Apr 22:52:44 22:55:35 26° 226° (SW) 22:58:24 145.800 FM
MaSat-1 19 Apr 22:54:10 22:54:55 11° 304° (NW) 22:55:38 437.345 MHz
Sapphire 19 Apr 23:24:50 23:27:09 13° 102° (ESE) 23:29:28 437.095 MHz 1200 baud AX-25 AFSK
PCSat 20 Apr 00:06:42 00:11:32 34° 110° (ESE) 00:16:23 145.825 MHz
SO-50 20 Apr 00:21:12 00:25:50 64° 55° (NE) 00:30:30 436.795 FM
Oscar 10/S400 20 Apr 00:51:43 00:58:22 12° 129° (SE) 01:06:19 145.825 - 145.975 CW/USB, Beacon 145.810 USB
UOSAT-12 20 Apr 01:02:50 01:05:32 15° 38° (NE) 01:08:14 437.025 FM, 437.400 FM
Sapphire 20 Apr 01:04:23 01:09:48 83° 299° (WNW) 01:15:15 437.095 MHz 1200 baud AX-25 AFSK
KITSAT 1 20 Apr 01:25:55 01:30:48 18° 101° (E) 01:35:42 435.175 FM
Oscar 19 20 Apr 01:26:16 01:29:20 16° 91° (E) 01:32:24 437.125 CW, 437.150 USB
Oscar 16 20 Apr 01:34:03 01:37:51 20° 93° (E) 01:41:37 437.025 USB, Beacon 2401.1428
OPAL 20 Apr 01:41:59 01:45:56 24° 62° (ENE) 01:49:55 ?
PCSat 20 Apr 01:49:59 01:54:54 35° 308° (NW) 01:59:52 145.825 MHz
SO-50 20 Apr 02:03:18 02:05:54 15° 251° (WSW) 02:08:31 436.795 FM
Uribyol 2 20 Apr 02:09:58 02:14:00 23° 94° (E) 02:18:01 436.500 FM
UOSAT-12 20 Apr 02:41:39 02:46:24 88° 58° (ENE) 02:51:05 437.025 FM, 437.400 FM
Gurwin Techsat 1B 20 Apr 02:46:36 02:49:35 15° 90° (E) 02:52:32 435.225 FM
AO-27 20 Apr 02:49:44 02:54:48 52° 100° (E) 02:59:49 436.795 MHz FM
Sapphire 20 Apr 02:50:57 02:54:05 15° 319° (NW) 02:57:14 437.095 MHz 1200 baud AX-25 AFSK
ITAMSAT 1 20 Apr 03:00:15 03:05:24 64° 102° (ESE) 03:10:31 435.822 SSB
AO-Echo 20 Apr 03:02:07 03:06:48 53° 100° (E) 03:11:22 ?
Oscar 19 20 Apr 03:03:57 03:09:06 63° 287° (WNW) 03:14:13 437.125 CW, 437.150 USB
Oscar 16 20 Apr 03:12:26 03:17:27 49° 289° (WNW) 03:22:26 437.025 USB, Beacon 2401.1428
KITSAT 1 20 Apr 03:16:56 03:25:03 88° 119° (ESE) 03:33:14 435.175 FM
OPAL 20 Apr 03:19:46 03:24:32 43° 259° (W) 03:29:24 ?
TMSAT-1 20 Apr 03:33:11 03:37:47 30° 96° (E) 03:42:22 436.925 FM
Uribyol 2 20 Apr 03:48:46 03:53:39 43° 290° (WNW) 03:58:32 436.500 FM
AO-7 20 Apr 03:55:01 03:59:40 16° 89° (E) 04:04:18 29.400 - 29.500 MHz
JAS-1B 20 Apr 03:55:06 03:59:29 23° 94° (E) 04:04:01 435.800 - 435.900 CW/SSB
Gurwin Techsat 1B 20 Apr 04:24:44 04:30:01 67° 287° (WNW) 04:35:16 435.225 FM
UOSAT-12 20 Apr 04:25:12 04:25:48 10° 254° (WSW) 04:26:24 437.025 FM, 437.400 FM
